Find Starlink 3174

NORAD ID: 51468 Int'l Des: 2022-010 Owner: SPXS Country: US Constellation: starlink operational
LEOCIRCULAR

实时位置

正在加载3D地球...

关于 Starlink 3174

正在加载描述...

即将过境

Passes for default location (London). Set your location on the main map for personalized predictions.

高度历史

Loading altitude history...

两行轨道根数

1 51468U 22010N 26121.07377775 .00000209 00000-0 31212-4 0 9998
2 51468 53.2183 43.9170 0001603 88.1685 271.9491 15.08838980234426
Epoch: May 1, 2026 • Age: 10 hours

当前状态

高度 545.0 km
速度 7.60 km/s
星下点 52.17°N, 80.97°E
发射日期 Feb 3, 2022
运行时间 4.2 years
类型 internet

技术详情

分类 Payload
质量 297.00 kg
干质量 275.00 kg
总质量 297.00 kg
长度 0.20 m
直径 2.80 m
跨度 9.00 m
形状 Box + pan
制造商 SPXS
平台类型 Starlink
阶段状态 In Orbit
所有者/国家 SPXS/US

Most Searched